Terminal Aerodrome Forecast
Issued by NWS Raleigh/Durham, NC

Home | Current Version | Previous Version | Text Only | Print | Product List | Glossary On
Versions: 1 2 3 4 5 6 7 8 9 10 11 12 13 14 15 16 17 18 19 20 21 22 23 24 25 26 27 28 29 30 31 32 33 34 35 36 37 38 39 40 41 42 43 44 45 46 47
000
FTUS42 KRAH 300536
TAFRDU
TAF
KRDU 300536Z 3006/0106 00000KT 6SM BR SCT005 BKN100
      TEMPO 3006/3009 1SM BR OVC005
     FM300900 00000KT 1/2SM FG OVC002
     FM301500 VRB02KT P6SM SCT008
     FM301800 VRB03KT P6SM SCT035=

USA.gov is the U.S. government's official web portal to all federal, state and local government web resources and services.